AFL1421 ULLI-USPP

Flight info

Callsign AFL1421
Flight time 2h 4m
Altitude 37000
Route KERIS1B KERIS L255 DOKOD M61 SUMOM SUMOM1F
Aircraft A321/M-SDE3FGHIRWY/LB1

Departure

Time 2026-04-21 19:51
Airport Pulkovo Airport (ULLI)

Arrival

Time 2026-04-21 21:55
Airport Perm International Airport (USPP)
Time Latitude Longitude Altitude Speed Heading
2026-04-21 19:18 59.79850 30.26721 82 ft 0 kts 97°
2026-04-21 19:38 59.79852 30.26690 87 ft 4 kts 98°
2026-04-21 19:38 59.79855 30.26654 85 ft 4 kts 98°
2026-04-21 19:38 59.79857 30.26585 86 ft 4 kts 70°
2026-04-21 19:39 59.79844 30.26555 84 ft 4 kts 28°
2026-04-21 19:39 59.79821 30.26540 84 ft 2 kts 17°
2026-04-21 19:39 59.79820 30.26539 84 ft 0 kts 17°
2026-04-21 19:42 59.79837 30.26549 87 ft 5 kts 17°
2026-04-21 19:42 59.79868 30.26568 90 ft 4 kts 17°
2026-04-21 19:42 59.79897 30.26585 75 ft 7 kts 16°
2026-04-21 19:42 59.79969 30.26627 82 ft 15 kts 16°
2026-04-21 19:43 59.80067 30.26684 79 ft 14 kts 17°
2026-04-21 19:43 59.80155 30.26736 81 ft 13 kts 17°
2026-04-21 19:43 59.80210 30.26769 82 ft 12 kts 17°
2026-04-21 19:43 59.80317 30.26833 79 ft 12 kts 17°
2026-04-21 19:44 59.80369 30.26869 78 ft 11 kts 33°
2026-04-21 19:44 59.80372 30.27019 79 ft 12 kts 104°
2026-04-21 19:44 59.80349 30.27176 77 ft 12 kts 106°
2026-04-21 19:44 59.80313 30.27416 80 ft 16 kts 106°
2026-04-21 19:45 59.80291 30.27564 78 ft 18 kts 106°
2026-04-21 19:45 59.80255 30.27810 79 ft 19 kts 107°
2026-04-21 19:45 59.80218 30.28055 78 ft 18 kts 107°
2026-04-21 19:45 59.80183 30.28284 76 ft 17 kts 107°
2026-04-21 19:46 59.80149 30.28505 70 ft 16 kts 106°
2026-04-21 19:46 59.80121 30.28696 72 ft 12 kts 106°
2026-04-21 19:46 59.80098 30.28858 69 ft 12 kts 106°
2026-04-21 19:46 59.80075 30.29009 74 ft 10 kts 107°
2026-04-21 19:47 59.80054 30.29143 68 ft 10 kts 107°
2026-04-21 19:47 59.80033 30.29283 71 ft 13 kts 106°
2026-04-21 19:47 59.80008 30.29459 70 ft 14 kts 106°
2026-04-21 19:47 59.79974 30.29680 70 ft 19 kts 106°
2026-04-21 19:48 59.79940 30.29907 63 ft 15 kts 105°
2026-04-21 19:48 59.79969 30.30088 62 ft 14 kts 45°
2026-04-21 19:48 59.80033 30.30229 61 ft 13 kts 48°
2026-04-21 19:48 59.80102 30.30308 71 ft 7 kts 360°
2026-04-21 19:49 59.80118 30.30255 62 ft 4 kts 285°
2026-04-21 19:49 59.80121 30.30235 64 ft 0 kts 285°
2026-04-21 19:50 59.80121 30.30234 64 ft 0 kts 285°
2026-04-21 19:50 59.80157 30.29968 69 ft 58 kts 285°
2026-04-21 19:50 59.80339 30.28715 73 ft 128 kts 285°
2026-04-21 19:50 59.80665 30.26594 163 ft 187 kts 287°
2026-04-21 19:51 59.81042 30.24151 1181 ft 183 kts 288°
2026-04-21 19:51 59.81381 30.21773 2183 ft 170 kts 289°
2026-04-21 19:51 59.81665 30.19676 2903 ft 149 kts 290°
2026-04-21 19:51 59.81942 30.17616 3137 ft 159 kts 289°
2026-04-21 19:52 59.82256 30.15362 3357 ft 179 kts 290°
2026-04-21 19:52 59.82624 30.12909 3710 ft 191 kts 290°
2026-04-21 19:52 59.83033 30.10310 4003 ft 205 kts 290°
2026-04-21 19:52 59.83474 30.07437 4161 ft 230 kts 290°
2026-04-21 19:53 59.83942 30.04276 4764 ft 238 kts 289°
2026-04-21 19:53 59.84595 30.01306 5594 ft 236 kts 312°
2026-04-21 19:53 59.85926 29.99469 6269 ft 236 kts 345°
2026-04-21 19:53 59.87555 29.99236 6961 ft 238 kts 12°
2026-04-21 19:54 59.89144 30.00155 7726 ft 238 kts 18°
2026-04-21 19:54 59.90724 30.01127 8550 ft 239 kts 18°
2026-04-21 19:54 59.92320 30.02107 9315 ft 241 kts 23°
2026-04-21 19:54 59.93621 30.04155 10029 ft 244 kts 56°
2026-04-21 19:55 59.94098 30.07399 10655 ft 253 kts 91°
2026-04-21 19:55 59.93602 30.10816 11328 ft 260 kts 107°
2026-04-21 19:55 59.92963 30.14154 11987 ft 263 kts 106°
2026-04-21 19:55 59.92350 30.17610 12645 ft 266 kts 105°
2026-04-21 19:56 59.91589 30.21078 13077 ft 283 kts 111°
2026-04-21 19:56 59.90727 30.24774 13235 ft 305 kts 110°
2026-04-21 19:56 59.89832 30.28719 13536 ft 320 kts 109°
2026-04-21 19:56 59.89291 30.33087 13679 ft 333 kts 91°
2026-04-21 19:57 59.89140 30.37823 13842 ft 351 kts 90°
2026-04-21 19:57 59.88992 30.42730 14263 ft 358 kts 90°
2026-04-21 19:57 59.88839 30.47713 14818 ft 362 kts 90°
2026-04-21 19:57 59.88682 30.52676 15372 ft 365 kts 90°
2026-04-21 19:58 59.88518 30.57734 15929 ft 368 kts 90°
2026-04-21 19:58 59.88348 30.62843 16484 ft 371 kts 89°
2026-04-21 19:58 59.88174 30.67988 17032 ft 374 kts 89°
2026-04-21 19:58 59.87997 30.73170 17571 ft 377 kts 89°
2026-04-21 19:59 59.87816 30.78399 18090 ft 380 kts 89°
2026-04-21 19:59 59.87633 30.83662 18548 ft 383 kts 89°
2026-04-21 19:59 59.87449 30.88960 18985 ft 385 kts 89°
2026-04-21 19:59 59.87264 30.94287 19423 ft 387 kts 89°
2026-04-21 20:00 59.87075 30.99636 19864 ft 388 kts 89°
2026-04-21 20:00 59.86881 31.05007 20298 ft 390 kts 89°
2026-04-21 20:00 59.86684 31.10399 20727 ft 392 kts 89°
2026-04-21 20:00 59.86485 31.15814 21161 ft 393 kts 89°
2026-04-21 20:01 59.86284 31.21250 21607 ft 395 kts 89°
2026-04-21 20:01 59.86078 31.26719 22062 ft 397 kts 89°
2026-04-21 20:01 59.85870 31.32210 22507 ft 399 kts 89°
2026-04-21 20:01 59.85658 31.37731 22953 ft 401 kts 89°
2026-04-21 20:02 59.85440 31.43274 23401 ft 403 kts 89°
2026-04-21 20:02 59.85220 31.48842 23805 ft 405 kts 89°
2026-04-21 20:02 59.84995 31.54444 24190 ft 407 kts 89°
2026-04-21 20:02 59.84767 31.60055 24568 ft 408 kts 89°
2026-04-21 20:03 59.84536 31.65691 24935 ft 410 kts 89°
2026-04-21 20:03 59.84300 31.71342 25304 ft 411 kts 89°
2026-04-21 20:03 59.84061 31.77020 25667 ft 412 kts 89°
2026-04-21 20:03 59.83824 31.82636 26029 ft 414 kts 89°
2026-04-21 20:04 59.83579 31.88427 26396 ft 415 kts 89°
2026-04-21 20:04 59.83339 31.94084 26745 ft 417 kts 89°
2026-04-21 20:04 59.83086 31.99911 27112 ft 419 kts 89°
2026-04-21 20:04 59.82836 32.05602 27466 ft 420 kts 89°
2026-04-21 20:05 59.82580 32.11389 27815 ft 421 kts 89°
2026-04-21 20:05 59.82319 32.17205 28153 ft 423 kts 89°
2026-04-21 20:05 59.82056 32.23032 28475 ft 424 kts 90°
2026-04-21 20:05 59.81789 32.28881 28776 ft 426 kts 90°
2026-04-21 20:06 59.81521 32.34756 29062 ft 427 kts 89°
2026-04-21 20:06 59.81330 32.40642 29338 ft 427 kts 87°
2026-04-21 20:06 59.81236 32.46539 29591 ft 427 kts 86°
2026-04-21 20:06 59.81194 32.52435 29859 ft 427 kts 85°
2026-04-21 20:07 59.81168 32.58327 30206 ft 426 kts 85°
2026-04-21 20:07 59.81128 32.64202 30488 ft 425 kts 86°
2026-04-21 20:07 59.81065 32.70069 30759 ft 425 kts 86°
2026-04-21 20:07 59.80981 32.75936 31034 ft 425 kts 86°
2026-04-21 20:08 59.80884 32.81803 31306 ft 425 kts 87°
2026-04-21 20:08 59.80779 32.87665 31582 ft 425 kts 87°
2026-04-21 20:08 59.80671 32.93527 31854 ft 424 kts 87°
2026-04-21 20:08 59.80563 32.99376 32128 ft 424 kts 87°
2026-04-21 20:09 59.80456 33.05242 32402 ft 424 kts 87°
2026-04-21 20:09 59.80347 33.11091 32674 ft 424 kts 87°
2026-04-21 20:09 59.80239 33.16932 32947 ft 423 kts 87°
2026-04-21 20:09 59.80128 33.22775 33226 ft 423 kts 87°
2026-04-21 20:10 59.80011 33.28622 33481 ft 423 kts 87°
2026-04-21 20:10 59.79890 33.34384 33736 ft 423 kts 87°
2026-04-21 20:10 59.79765 33.40226 34000 ft 423 kts 87°
2026-04-21 20:10 59.79638 33.46054 34209 ft 423 kts 88°
2026-04-21 20:11 59.79509 33.51898 34388 ft 424 kts 88°
2026-04-21 20:11 59.79382 33.57744 34556 ft 425 kts 88°
2026-04-21 20:11 59.79255 33.63611 34718 ft 426 kts 88°
2026-04-21 20:11 59.79125 33.69491 34879 ft 426 kts 88°
2026-04-21 20:12 59.78990 33.75376 35035 ft 427 kts 88°
2026-04-21 20:12 59.78847 33.81285 35185 ft 428 kts 88°
2026-04-21 20:12 59.78701 33.87190 35341 ft 429 kts 88°
2026-04-21 20:12 59.78551 33.93108 35496 ft 430 kts 89°
2026-04-21 20:13 59.78400 33.99052 35648 ft 431 kts 89°
2026-04-21 20:13 59.78250 34.04986 35791 ft 432 kts 89°
2026-04-21 20:13 59.78096 34.10949 35936 ft 432 kts 89°
2026-04-21 20:13 59.77939 34.16901 36077 ft 433 kts 89°
2026-04-21 20:14 59.77779 34.22892 36214 ft 434 kts 89°
2026-04-21 20:14 59.77616 34.28881 36356 ft 435 kts 89°
2026-04-21 20:14 59.77450 34.34793 36489 ft 436 kts 89°
2026-04-21 20:14 59.77279 34.40797 36617 ft 436 kts 89°
2026-04-21 20:15 59.77106 34.46804 36740 ft 437 kts 89°
2026-04-21 20:15 59.76930 34.52825 36894 ft 437 kts 90°
2026-04-21 20:15 59.76749 34.58850 36997 ft 438 kts 90°
2026-04-21 20:16 59.76389 34.70913 37004 ft 438 kts 90°
2026-04-21 20:16 59.76012 34.82991 37004 ft 439 kts 90°
2026-04-21 20:17 59.75616 34.95057 37006 ft 439 kts 90°
2026-04-21 20:17 59.75213 35.07138 37007 ft 439 kts 90°
2026-04-21 20:18 59.74875 35.17171 37009 ft 439 kts 90°
2026-04-21 20:18 59.74374 35.31303 37010 ft 440 kts 90°
2026-04-21 20:19 59.73934 35.43394 37010 ft 440 kts 91°
2026-04-21 20:19 59.73473 35.55513 37010 ft 441 kts 91°
2026-04-21 20:20 59.73006 35.67629 37009 ft 441 kts 91°
2026-04-21 20:20 59.72532 35.79661 37006 ft 441 kts 91°
2026-04-21 20:21 59.72045 35.91771 37006 ft 441 kts 91°
2026-04-21 20:21 59.71536 36.03900 37003 ft 442 kts 91°
2026-04-21 20:22 59.71012 36.16027 36996 ft 442 kts 91°
2026-04-21 20:22 59.70217 36.34246 36986 ft 443 kts 91°
2026-04-21 20:23 59.69675 36.46391 36989 ft 443 kts 91°
2026-04-21 20:23 59.69122 36.58537 36983 ft 443 kts 92°
2026-04-21 20:24 59.68548 36.70690 36978 ft 444 kts 92°
2026-04-21 20:24 59.67966 36.82857 36973 ft 444 kts 92°
2026-04-21 20:25 59.67368 36.95009 36969 ft 444 kts 92°
2026-04-21 20:25 59.66761 37.07100 36963 ft 444 kts 92°
2026-04-21 20:26 59.66148 37.19250 36960 ft 444 kts 92°
2026-04-21 20:26 59.65520 37.31416 36955 ft 445 kts 92°
2026-04-21 20:27 59.64881 37.43576 36954 ft 445 kts 92°
2026-04-21 20:27 59.64232 37.55755 36946 ft 445 kts 93°
2026-04-21 20:28 59.63570 37.67915 36935 ft 445 kts 93°
2026-04-21 20:28 59.62892 37.80083 36938 ft 445 kts 93°
2026-04-21 20:29 59.62201 37.92238 36937 ft 446 kts 93°
2026-04-21 20:29 59.61510 38.04417 36934 ft 446 kts 93°
2026-04-21 20:30 59.60815 38.16508 36928 ft 446 kts 94°
2026-04-21 20:30 59.60096 38.28683 36928 ft 446 kts 94°
2026-04-21 20:31 59.59357 38.40844 36921 ft 447 kts 94°
2026-04-21 20:31 59.58613 38.53032 36928 ft 447 kts 94°
2026-04-21 20:32 59.57863 38.65221 36929 ft 447 kts 94°
2026-04-21 20:32 59.57097 38.77398 36926 ft 448 kts 94°
2026-04-21 20:33 59.56319 38.89602 36928 ft 448 kts 94°
2026-04-21 20:33 59.55527 39.01791 36926 ft 448 kts 95°
2026-04-21 20:34 59.54727 39.13901 36927 ft 449 kts 95°
2026-04-21 20:34 59.53914 39.26100 36929 ft 449 kts 95°
2026-04-21 20:35 59.53095 39.38307 36928 ft 449 kts 95°
2026-04-21 20:35 59.52265 39.50504 36925 ft 450 kts 95°
2026-04-21 20:36 59.51414 39.62718 36927 ft 450 kts 95°
2026-04-21 20:36 59.50541 39.74919 36927 ft 450 kts 95°
2026-04-21 20:37 59.49686 39.87140 36927 ft 450 kts 94°
2026-04-21 20:37 59.49152 39.99387 36927 ft 449 kts 91°
2026-04-21 20:38 59.48791 40.11657 36927 ft 449 kts 91°
2026-04-21 20:38 59.48376 40.23928 36923 ft 450 kts 91°
2026-04-21 20:39 59.47884 40.36201 36920 ft 450 kts 92°
2026-04-21 20:39 59.47355 40.48410 36915 ft 451 kts 92°
2026-04-21 20:40 59.46819 40.60705 36914 ft 451 kts 92°
2026-04-21 20:40 59.46292 40.73014 36913 ft 452 kts 92°
2026-04-21 20:41 59.45754 40.85310 36909 ft 452 kts 92°
2026-04-21 20:41 59.45292 40.95537 36908 ft 452 kts 93°
2026-04-21 20:42 59.44721 41.07851 36911 ft 452 kts 93°
2026-04-21 20:42 59.44149 41.20165 36909 ft 453 kts 93°
2026-04-21 20:43 59.43561 41.32482 36910 ft 453 kts 93°
2026-04-21 20:43 59.42957 41.44802 36908 ft 453 kts 94°
2026-04-21 20:44 59.42338 41.57113 36908 ft 453 kts 94°
2026-04-21 20:44 59.41719 41.69433 36903 ft 453 kts 94°
2026-04-21 20:45 59.41093 41.81681 36905 ft 454 kts 94°
2026-04-21 20:45 59.40445 41.93995 36900 ft 454 kts 94°
2026-04-21 20:46 59.39782 42.06307 36899 ft 454 kts 94°
2026-04-21 20:46 59.39109 42.18634 36895 ft 454 kts 94°
2026-04-21 20:47 59.38411 42.30948 36896 ft 454 kts 94°
2026-04-21 20:47 59.37696 42.43259 36890 ft 454 kts 95°
2026-04-21 20:48 59.36945 42.55564 36888 ft 455 kts 95°
2026-04-21 20:48 59.36186 42.67878 36887 ft 455 kts 95°
2026-04-21 20:49 59.35419 42.80181 36885 ft 455 kts 95°
2026-04-21 20:49 59.34644 42.92489 36882 ft 455 kts 95°
2026-04-21 20:50 59.33857 43.04777 36881 ft 455 kts 95°
2026-04-21 20:50 59.33060 43.17004 36878 ft 455 kts 96°
2026-04-21 20:51 59.32242 43.29293 36882 ft 455 kts 96°
2026-04-21 20:51 59.31403 43.41577 36872 ft 455 kts 96°
2026-04-21 20:52 59.30564 43.53872 36871 ft 455 kts 96°
2026-04-21 20:52 59.29724 43.66132 36876 ft 455 kts 96°
2026-04-21 20:53 59.28867 43.78426 36865 ft 455 kts 96°
2026-04-21 20:53 59.27984 43.90694 36859 ft 456 kts 97°
2026-04-21 20:54 59.27096 44.02963 36862 ft 456 kts 97°
2026-04-21 20:54 59.26196 44.15224 36851 ft 456 kts 97°
2026-04-21 20:55 59.25344 44.27507 36853 ft 456 kts 96°
2026-04-21 20:55 59.24561 44.39798 36855 ft 456 kts 96°
2026-04-21 20:56 59.23762 44.51997 36849 ft 456 kts 96°
2026-04-21 20:56 59.22921 44.64269 36852 ft 456 kts 96°
2026-04-21 20:57 59.22064 44.76545 36846 ft 456 kts 96°
2026-04-21 20:57 59.21193 44.88813 36846 ft 456 kts 97°
2026-04-21 20:58 59.20317 45.01087 36845 ft 457 kts 97°
2026-04-21 20:58 59.19433 45.13360 36837 ft 457 kts 97°
2026-04-21 20:59 59.18526 45.25631 36840 ft 457 kts 97°
2026-04-21 20:59 59.17407 45.37829 36837 ft 458 kts 101°
2026-04-21 21:00 59.16028 45.49865 36835 ft 458 kts 102°
2026-04-21 21:00 59.14596 45.61950 36830 ft 458 kts 102°
2026-04-21 21:01 59.13211 45.74065 36825 ft 458 kts 101°
2026-04-21 21:01 59.11854 45.86200 36825 ft 459 kts 101°
2026-04-21 21:02 59.10482 45.98322 36824 ft 459 kts 101°
2026-04-21 21:02 59.09090 46.10433 36820 ft 459 kts 102°
2026-04-21 21:03 59.07680 46.22547 36821 ft 459 kts 102°
2026-04-21 21:03 59.06256 46.34652 36819 ft 459 kts 102°
2026-04-21 21:04 59.04834 46.46756 36819 ft 460 kts 102°
2026-04-21 21:04 59.03391 46.58845 36811 ft 460 kts 102°
2026-04-21 21:05 59.01948 46.70852 36815 ft 460 kts 102°
2026-04-21 21:05 59.00485 46.82934 36821 ft 460 kts 102°
2026-04-21 21:06 58.99004 46.95012 36816 ft 460 kts 103°
2026-04-21 21:06 58.97510 47.07077 36815 ft 460 kts 103°
2026-04-21 21:07 58.96007 47.19136 36812 ft 460 kts 103°
2026-04-21 21:07 58.94499 47.31200 36810 ft 461 kts 103°
2026-04-21 21:08 58.92973 47.43241 36803 ft 461 kts 103°
2026-04-21 21:08 58.91521 47.55336 36799 ft 461 kts 101°
2026-04-21 21:09 58.90295 47.67510 36795 ft 461 kts 100°
2026-04-21 21:09 58.89097 47.79619 36799 ft 461 kts 101°
2026-04-21 21:10 58.87820 47.91767 36793 ft 462 kts 101°
2026-04-21 21:10 58.86499 48.03918 36788 ft 462 kts 101°
2026-04-21 21:11 58.85168 48.16079 36787 ft 462 kts 101°
2026-04-21 21:11 58.83841 48.28221 36783 ft 463 kts 102°
2026-04-21 21:12 58.82494 48.40377 36775 ft 463 kts 102°
2026-04-21 21:12 58.81140 48.52539 36774 ft 463 kts 102°
2026-04-21 21:13 58.79789 48.64701 36771 ft 464 kts 102°
2026-04-21 21:13 58.78414 48.76855 36765 ft 464 kts 102°
2026-04-21 21:14 58.77035 48.89003 36766 ft 464 kts 102°
2026-04-21 21:14 58.75629 49.01152 36765 ft 465 kts 102°
2026-04-21 21:15 58.74206 49.13214 36761 ft 465 kts 103°
2026-04-21 21:15 58.72762 49.25356 36754 ft 465 kts 103°
2026-04-21 21:16 58.71330 49.37491 36756 ft 465 kts 102°
2026-04-21 21:16 58.69897 49.49630 36756 ft 465 kts 103°
2026-04-21 21:17 58.68443 49.61763 36753 ft 465 kts 103°
2026-04-21 21:17 58.66971 49.73876 36751 ft 465 kts 103°
2026-04-21 21:18 58.65494 49.85973 36750 ft 465 kts 103°
2026-04-21 21:18 58.64010 49.98087 36746 ft 466 kts 103°
2026-04-21 21:19 58.62509 50.10176 36743 ft 466 kts 103°
2026-04-21 21:19 58.60999 50.22175 36739 ft 466 kts 103°
2026-04-21 21:20 58.59471 50.34247 36739 ft 466 kts 103°
2026-04-21 21:20 58.57938 50.46306 36734 ft 466 kts 104°
2026-04-21 21:21 58.56371 50.58365 36731 ft 466 kts 104°
2026-04-21 21:21 58.54758 50.70391 36724 ft 466 kts 104°
2026-04-21 21:22 58.53139 50.82403 36719 ft 466 kts 104°
2026-04-21 21:22 58.51495 50.94425 36715 ft 467 kts 105°
2026-04-21 21:23 58.49850 51.06426 36717 ft 467 kts 105°
2026-04-21 21:23 58.48195 51.18429 36713 ft 467 kts 105°
2026-04-21 21:24 58.46525 51.30418 36713 ft 467 kts 105°
2026-04-21 21:24 58.44860 51.42326 36711 ft 467 kts 105°
2026-04-21 21:25 58.43168 51.54305 36708 ft 467 kts 105°
2026-04-21 21:25 58.41486 51.66288 36709 ft 468 kts 104°
2026-04-21 21:26 58.40150 51.78429 36707 ft 468 kts 101°
2026-04-21 21:26 58.39008 51.90647 36705 ft 468 kts 101°
2026-04-21 21:27 58.37802 52.02831 36701 ft 468 kts 102°
2026-04-21 21:27 58.36505 52.15005 36698 ft 468 kts 102°
2026-04-21 21:28 58.35180 52.27141 36701 ft 469 kts 102°
2026-04-21 21:29 58.33198 52.45289 36695 ft 469 kts 102°
2026-04-21 21:29 58.31876 52.57448 36697 ft 469 kts 102°
2026-04-21 21:30 58.30530 52.69587 36693 ft 469 kts 103°
2026-04-21 21:30 58.29171 52.81699 36521 ft 469 kts 103°
2026-04-21 21:30 58.28487 52.87786 36279 ft 468 kts 103°
2026-04-21 21:31 58.27807 52.93841 36037 ft 468 kts 103°
2026-04-21 21:31 58.27123 52.99886 35793 ft 468 kts 103°
2026-04-21 21:31 58.26496 53.05401 35576 ft 468 kts 103°
2026-04-21 21:31 58.25807 53.11440 35338 ft 468 kts 103°
2026-04-21 21:32 58.25113 53.17474 35106 ft 468 kts 103°
2026-04-21 21:32 58.24415 53.23505 34874 ft 468 kts 103°
2026-04-21 21:32 58.23710 53.29542 34640 ft 468 kts 103°
2026-04-21 21:32 58.23003 53.35578 34408 ft 468 kts 103°
2026-04-21 21:33 58.22296 53.41612 33802 ft 471 kts 103°
2026-04-21 21:33 58.21588 53.47644 32699 ft 477 kts 103°
2026-04-21 21:33 58.20862 53.53789 31735 ft 478 kts 103°
2026-04-21 21:33 58.20130 53.59959 30737 ft 480 kts 103°
2026-04-21 21:34 58.19394 53.66131 29860 ft 480 kts 103°
2026-04-21 21:34 58.18666 53.72227 29181 ft 471 kts 103°
2026-04-21 21:34 58.17949 53.78224 28527 ft 463 kts 103°
2026-04-21 21:34 58.17238 53.84130 27884 ft 455 kts 103°
2026-04-21 21:35 58.16531 53.89936 27260 ft 449 kts 103°
2026-04-21 21:35 58.15831 53.95651 26648 ft 443 kts 103°
2026-04-21 21:35 58.15138 54.01297 26049 ft 437 kts 103°
2026-04-21 21:35 58.14459 54.06857 25445 ft 431 kts 103°
2026-04-21 21:36 58.13786 54.12351 24857 ft 425 kts 103°
2026-04-21 21:36 58.13123 54.17765 24283 ft 420 kts 103°
2026-04-21 21:36 58.12466 54.23113 23723 ft 414 kts 103°
2026-04-21 21:36 58.11817 54.28381 23168 ft 409 kts 103°
2026-04-21 21:37 58.11174 54.33566 22593 ft 401 kts 103°
2026-04-21 21:37 58.10540 54.38645 22102 ft 392 kts 103°
2026-04-21 21:37 58.10128 54.41933 21800 ft 385 kts 103°
2026-04-21 21:37 58.09310 54.48426 21194 ft 375 kts 103°
2026-04-21 21:38 58.08912 54.51580 20916 ft 370 kts 103°
2026-04-21 21:38 58.08322 54.56255 20493 ft 364 kts 104°
2026-04-21 21:38 58.07731 54.60908 20072 ft 361 kts 104°
2026-04-21 21:38 58.07144 54.65502 19648 ft 359 kts 104°
2026-04-21 21:39 58.06558 54.70084 19234 ft 357 kts 104°
2026-04-21 21:39 58.06042 54.74658 18805 ft 356 kts 98°
2026-04-21 21:39 58.05901 54.79311 18382 ft 355 kts 89°
2026-04-21 21:39 58.06171 54.83934 17938 ft 354 kts 79°
2026-04-21 21:40 58.06720 54.88455 17461 ft 352 kts 78°
2026-04-21 21:40 58.07264 54.92953 17014 ft 351 kts 78°
2026-04-21 21:40 58.07797 54.97435 16568 ft 349 kts 78°
2026-04-21 21:40 58.08316 55.01836 16128 ft 347 kts 78°
2026-04-21 21:41 58.08835 55.06267 15677 ft 344 kts 79°
2026-04-21 21:41 58.09350 55.10671 15235 ft 342 kts 79°
2026-04-21 21:41 58.09863 55.15053 14786 ft 340 kts 79°
2026-04-21 21:41 58.10373 55.19409 14349 ft 338 kts 79°
2026-04-21 21:42 58.10879 55.23742 13903 ft 337 kts 79°
2026-04-21 21:42 58.11382 55.28055 13452 ft 335 kts 79°
2026-04-21 21:42 58.11881 55.32337 12971 ft 332 kts 79°
2026-04-21 21:42 58.12376 55.36589 12525 ft 330 kts 79°
2026-04-21 21:43 58.12864 55.40814 12074 ft 328 kts 79°
2026-04-21 21:43 58.13345 55.45010 11617 ft 325 kts 79°
2026-04-21 21:43 58.13819 55.49179 11164 ft 323 kts 79°
2026-04-21 21:43 58.14288 55.53325 10705 ft 321 kts 80°
2026-04-21 21:44 58.14754 55.57442 10253 ft 319 kts 80°
2026-04-21 21:44 58.15196 55.61475 10066 ft 306 kts 83°
2026-04-21 21:44 58.15324 55.65406 9822 ft 295 kts 95°
2026-04-21 21:44 58.15218 55.69252 9566 ft 290 kts 96°
2026-04-21 21:45 58.15109 55.73063 9433 ft 290 kts 96°
2026-04-21 21:45 58.15001 55.76871 9292 ft 290 kts 96°
2026-04-21 21:45 58.14894 55.80625 9153 ft 289 kts 96°
2026-04-21 21:45 58.14789 55.84424 8949 ft 289 kts 96°
2026-04-21 21:46 58.14682 55.88217 8591 ft 287 kts 96°
2026-04-21 21:46 58.14574 55.91978 8217 ft 285 kts 96°
2026-04-21 21:46 58.14465 55.95702 7851 ft 282 kts 96°
2026-04-21 21:46 58.14356 55.99379 7491 ft 279 kts 96°
2026-04-21 21:47 58.14246 56.03024 7129 ft 276 kts 96°
2026-04-21 21:47 58.14135 56.06638 6770 ft 274 kts 96°
2026-04-21 21:47 58.14025 56.10224 6418 ft 272 kts 96°
2026-04-21 21:47 58.13917 56.13781 6068 ft 270 kts 96°
2026-04-21 21:48 58.13609 56.17232 5701 ft 263 kts 113°
2026-04-21 21:48 58.12748 56.20171 5505 ft 248 kts 134°
2026-04-21 21:48 58.11578 56.22428 5361 ft 236 kts 140°
2026-04-21 21:48 58.10419 56.24538 5115 ft 228 kts 141°
2026-04-21 21:49 58.09291 56.26590 4827 ft 222 kts 141°
2026-04-21 21:49 58.08193 56.28580 4540 ft 214 kts 142°
2026-04-21 21:49 58.06970 56.29856 4265 ft 192 kts 175°
2026-04-21 21:49 58.05763 56.29595 4188 ft 167 kts 205°
2026-04-21 21:50 58.04881 56.28399 4057 ft 150 kts 226°
2026-04-21 21:50 58.04184 56.27027 3879 ft 140 kts 227°
2026-04-21 21:50 58.03526 56.25731 3703 ft 135 kts 226°
2026-04-21 21:50 58.02880 56.24461 3508 ft 134 kts 227°
2026-04-21 21:51 58.02236 56.23198 3329 ft 133 kts 227°
2026-04-21 21:51 58.01596 56.21942 3145 ft 133 kts 227°
2026-04-21 21:51 58.00955 56.20686 2958 ft 132 kts 227°
2026-04-21 21:51 58.00319 56.19440 2777 ft 132 kts 227°
2026-04-21 21:52 57.99685 56.18199 2598 ft 131 kts 227°
2026-04-21 21:52 57.99053 56.16963 2405 ft 131 kts 227°
2026-04-21 21:52 57.98423 56.15731 2224 ft 130 kts 227°
2026-04-21 21:52 57.97795 56.14503 2040 ft 130 kts 227°
2026-04-21 21:53 57.97167 56.13277 1846 ft 130 kts 226°
2026-04-21 21:53 57.96541 56.12056 1674 ft 129 kts 226°
2026-04-21 21:53 57.95916 56.10835 1482 ft 129 kts 226°
2026-04-21 21:53 57.95287 56.09609 1280 ft 131 kts 225°
2026-04-21 21:54 57.94652 56.08369 1083 ft 132 kts 225°
2026-04-21 21:54 57.94013 56.07112 900 ft 133 kts 226°
2026-04-21 21:54 57.93379 56.05857 721 ft 135 kts 226°
2026-04-21 21:54 57.92725 56.04597 540 ft 135 kts 225°
2026-04-21 21:55 57.92073 56.03349 410 ft 132 kts 227°
2026-04-21 21:55 57.91494 56.02207 398 ft 103 kts 225°
2026-04-21 21:55 57.91124 56.01505 394 ft 51 kts 226°
2026-04-21 21:55 57.90979 56.01219 393 ft 21 kts 227°
2026-04-21 21:56 57.90917 56.01031 394 ft 11 kts 200°
2026-04-21 21:56 57.90900 56.01064 394 ft 6 kts 83°
2026-04-21 21:56 57.90957 56.01174 396 ft 19 kts 48°
2026-04-21 21:56 57.91060 56.01374 389 ft 21 kts 45°
2026-04-21 21:57 57.91158 56.01563 398 ft 19 kts 46°
2026-04-21 21:57 57.91243 56.01586 390 ft 14 kts 322°
2026-04-21 21:57 57.91306 56.01470 393 ft 11 kts 317°
2026-04-21 21:57 57.91362 56.01373 394 ft 11 kts 316°
2026-04-21 21:58 57.91404 56.01297 396 ft 8 kts 316°
2026-04-21 21:58 57.91441 56.01229 395 ft 7 kts 315°
2026-04-21 21:58 57.91459 56.01226 397 ft 3 kts
2026-04-21 21:58 57.91491 56.01197 397 ft 10 kts 312°
2026-04-21 21:59 57.91519 56.01144 394 ft 0 kts 317°